| time (UTC) | temp C | wind direction | speed KPH | gust KPH | rain 1hr cm | rain 24hr cm | rain mn cm | humidity % | barometer mb |
| 20260507105711 | 5 | 346 | 0.0 | 0.0 | 0.00 | 0.00 | 0.00 | 99 | 1034.4 |
| 20260507105206 | 5 | 344 | 0.0 | 0.0 | 0.00 | 0.00 | 0.00 | 99 | 1034.4 |
| 20260507104704 | 5 | 323 | 0.0 | 0.0 | 0.00 | 0.00 | 0.00 | 99 | 1034.8 |
| 20260507104201 | 5 | 332 | 0.0 | 0.0 | 0.00 | 0.00 | 0.00 | 99 | 1034.7 |
| 20260507103656 | 5 | 328 | 0.0 | 0.0 | 0.00 | 0.00 | 0.00 | 99 | 1034.5 |
| 20260507103153 | 5 | 338 | 0.0 | 0.0 | 0.00 | 0.00 | 0.00 | 99 | 1034.6 |
| 20260507102649 | 5 | 347 | 0.0 | 0.0 | 0.00 | 0.00 | 0.00 | 99 | 1034.6 |
| 20260507102146 | 5 | 326 | 0.0 | 0.0 | 0.00 | 0.00 | 0.00 | 99 | 1034.6 |
| 20260507101642 | 5 | 325 | 0.0 | 0.0 | 0.00 | 0.00 | 0.00 | 99 | 1034.5 |
| 20260507101138 | 4 | 325 | 0.0 | 0.0 | 0.00 | 0.00 | 0.00 | 99 | 1034.5 |
| 20260507100635 | 4 | 327 | 0.0 | 0.0 | 0.00 | 0.00 | 0.00 | 99 | 1034.4 |
| 20260507100134 | 4 | 334 | 0.0 | 0.0 | 0.00 | 0.00 | 0.00 | 99 | 1034.4 |
| 20260507095631 | 5 | 338 | 0.0 | 0.0 | 0.00 | 0.00 | 0.00 | 99 | 1034.5 |
| 20260507095127 | 5 | 354 | 0.0 | 0.0 | 0.00 | 0.00 | 0.00 | 99 | 1034.8 |
| 20260507094624 | 5 | 341 | 0.0 | 1.6 | 0.00 | 0.00 | 0.00 | 99 | 1034.8 |
| 20260507094121 | 4 | 353 | 0.0 | 0.0 | 0.00 | 0.00 | 0.00 | 99 | 1034.6 |
| 20260507093618 | 5 | 353 | 0.0 | 0.0 | 0.00 | 0.00 | 0.00 | 99 | 1034.6 |
| 20260507093117 | 5 | 353 | 0.0 | 0.0 | 0.00 | 0.00 | 0.00 | 99 | 1034.6 |
| 20260507092613 | 5 | 353 | 0.0 | 0.0 | 0.00 | 0.00 | 0.00 | 99 | 1034.6 |
| 20260507092109 | 5 | 353 | 0.0 | 0.0 | 0.00 | 0.00 | 0.00 | 99 | 1034.7 |
| 20260507091606 | 5 | 354 | 0.0 | 0.0 | 0.00 | 0.00 | 0.00 | 99 | 1034.9 |
| 20260507091102 | 5 | 354 | 0.0 | 0.0 | 0.00 | 0.00 | 0.00 | 99 | 1034.7 |
| 20260507090558 | 5 | 353 | 0.0 | 0.0 | 0.00 | 0.00 | 0.00 | 99 | 1034.8 |
| 20260507090055 | 5 | 353 | 0.0 | 0.0 | 0.00 | 0.00 | 0.00 | 99 | 1035.0 |
| 20260507085552 | 5 | 353 | 0.0 | 0.0 | 0.00 | 0.00 | 0.00 | 99 | 1034.8 |
| 20260507085049 | 5 | 353 | 0.0 | 0.0 | 0.00 | 0.00 | 0.00 | 99 | 1034.7 |
| 20260507084546 | 5 | 353 | 0.0 | 0.0 | 0.00 | 0.00 | 0.00 | 99 | 1034.7 |
| 20260507084043 | 5 | 353 | 0.0 | 0.0 | 0.00 | 0.00 | 0.00 | 99 | 1034.8 |
| 20260507083539 | 5 | 353 | 0.0 | 0.0 | 0.00 | 0.00 | 0.00 | 99 | 1034.7 |
| 20260507083036 | 5 | 353 | 0.0 | 0.0 | 0.00 | 0.00 | 0.00 | 99 | 1034.9 |
| 20260507082532 | 5 | 353 | 0.0 | 0.0 | 0.00 | 0.00 | 0.00 | 99 | 1034.6 |
| 20260507082029 | 5 | 353 | 0.0 | 0.0 | 0.00 | 0.00 | 0.00 | 99 | 1034.6 |
| 20260507081525 | 5 | 353 | 0.0 | 0.0 | 0.00 | 0.00 | 0.00 | 99 | 1034.7 |
| 20260507081022 | 5 | 353 | 0.0 | 0.0 | 0.00 | 0.00 | 0.00 | 99 | 1034.7 |
| 20260507080518 | 5 | 353 | 0.0 | 0.0 | 0.00 | 0.00 | 0.00 | 99 | 1034.6 |
| 20260507080015 | 5 | 353 | 0.0 | 0.0 | 0.00 | 0.00 | 0.00 | 99 | 1034.7 |
| 20260507075510 | 5 | 353 | 0.0 | 0.0 | 0.00 | 0.00 | 0.00 | 99 | 1034.5 |
| 20260507075007 | 5 | 353 | 0.0 | 0.0 | 0.00 | 0.00 | 0.00 | 99 | 1034.4 |
| 20260507074503 | 5 | 353 | 0.0 | 0.0 | 0.00 | 0.00 | 0.00 | 99 | 1034.5 |
| 20260507074002 | 6 | 353 | 0.0 | 0.0 | 0.00 | 0.00 | 0.00 | 99 | 1034.3 |
| 20260507073457 | 6 | 353 | 0.0 | 0.0 | 0.00 | 0.00 | 0.00 | 99 | 1034.3 |
| 20260507072954 | 6 | 353 | 0.0 | 0.0 | 0.00 | 0.00 | 0.00 | 99 | 1034.2 |
| 20260507072452 | 6 | 353 | 0.0 | 0.0 | 0.00 | 0.00 | 0.00 | 99 | 1034.3 |
| 20260507071949 | 6 | 353 | 0.0 | 0.0 | 0.00 | 0.00 | 0.00 | 99 | 1033.9 |
| 20260507071446 | 6 | 353 | 0.0 | 0.0 | 0.00 | 0.00 | 0.00 | 99 | 1034.0 |
| 20260507070942 | 6 | 353 | 0.0 | 0.0 | 0.00 | 0.00 | 0.00 | 99 | 1033.7 |
| 20260507070440 | 6 | 353 | 0.0 | 0.0 | 0.00 | 0.00 | 0.00 | 99 | 1034.0 |
| 20260507065936 | 6 | 353 | 0.0 | 0.0 | 0.00 | 0.00 | 0.00 | 99 | 1033.8 |
| 20260507065433 | 6 | 353 | 0.0 | 0.0 | 0.00 | 0.00 | 0.00 | 99 | 1033.7 |
| 20260507064931 | 6 | 353 | 0.0 | 0.0 | 0.00 | 0.00 | 0.00 | 99 | 1033.8 |
| 20260507064429 | 6 | 354 | 0.0 | 0.0 | 0.00 | 0.00 | 0.00 | 99 | 1034.1 |
| 20260507063926 | 6 | 352 | 0.0 | 0.0 | 0.00 | 0.00 | 0.00 | 99 | 1034.1 |
| 20260507063423 | 6 | 352 | 0.0 | 0.0 | 0.00 | 0.00 | 0.00 | 99 | 1033.9 |
| 20260507062920 | 6 | 353 | 0.0 | 0.0 | 0.00 | 0.00 | 0.00 | 99 | 1033.8 |
| 20260507062416 | 6 | 351 | 0.0 | 0.0 | 0.00 | 0.00 | 0.00 | 99 | 1034.1 |
| 20260507061909 | 6 | 351 | 0.0 | 0.0 | 0.00 | 0.00 | 0.00 | 99 | 1033.8 |
| 20260507061407 | 6 | 351 | 0.0 | 0.0 | 0.00 | 0.00 | 0.00 | 99 | 1033.8 |
| 20260507060905 | 6 | 350 | 0.0 | 0.0 | 0.00 | 0.00 | 0.00 | 99 | 1034.1 |
| 20260507060401 | 6 | 350 | 0.0 | 0.0 | 0.00 | 0.00 | 0.00 | 99 | 1033.7 |
| 20260507055858 | 6 | 351 | 0.0 | 0.0 | 0.00 | 0.00 | 0.00 | 99 | 1033.7 |
| 20260507055353 | 6 | 349 | 0.0 | 0.0 | 0.00 | 0.00 | 0.00 | 99 | 1033.9 |
| 20260507054850 | 6 | 342 | 0.0 | 0.0 | 0.00 | 0.00 | 0.00 | 99 | 1034.4 |
| 20260507054346 | 6 | 342 | 0.0 | 0.0 | 0.00 | 0.00 | 0.00 | 99 | 1034.4 |
| 20260507053843 | 6 | 349 | 0.0 | 0.0 | 0.00 | 0.00 | 0.00 | 99 | 1034.1 |
| 20260507053341 | 6 | 350 | 0.0 | 0.0 | 0.00 | 0.00 | 0.00 | 99 | 1034.5 |
| 20260507052840 | 6 | 344 | 0.0 | 0.0 | 0.00 | 0.00 | 0.00 | 99 | 1034.5 |
| 20260507052336 | 6 | 345 | 0.0 | 0.0 | 0.00 | 0.00 | 0.00 | 99 | 1034.5 |
| 20260507051834 | 6 | 354 | 0.0 | 1.6 | 0.00 | 0.00 | 0.00 | 99 | 1034.1 |
| 20260507051331 | 6 | 350 | 0.0 | 0.0 | 0.00 | 0.00 | 0.00 | 99 | 1034.2 |
| 20260507050828 | 6 | 353 | 0.0 | 0.0 | 0.00 | 0.00 | 0.00 | 99 | 1034.2 |
| 20260507050324 | 6 | 342 | 0.0 | 0.0 | 0.00 | 0.00 | 0.00 | 99 | 1034.5 |
| 20260507045821 | 6 | 342 | 0.0 | 0.0 | 0.00 | 0.00 | 0.00 | 99 | 1034.3 |
| 20260507045318 | 6 | 341 | 0.0 | 0.0 | 0.00 | 0.00 | 0.00 | 99 | 1034.3 |
| 20260507044815 | 6 | 346 | 0.0 | 0.0 | 0.00 | 0.00 | 0.00 | 99 | 1033.9 |
| 20260507044312 | 6 | 351 | 0.0 | 0.0 | 0.00 | 0.00 | 0.00 | 99 | 1033.9 |
| 20260507043808 | 7 | 344 | 0.0 | 0.0 | 0.00 | 0.00 | 0.00 | 99 | 1034.1 |
| 20260507043304 | 7 | 347 | 0.0 | 0.0 | 0.00 | 0.00 | 0.00 | 99 | 1034.3 |
| 20260507042801 | 7 | 334 | 0.0 | 0.0 | 0.00 | 0.00 | 0.00 | 99 | 1034.2 |
| 20260507042256 | 7 | 343 | 0.0 | 0.0 | 0.00 | 0.00 | 0.00 | 99 | 1034.2 |
| 20260507041754 | 7 | 334 | 0.0 | 0.0 | 0.00 | 0.00 | 0.00 | 99 | 1034.2 |
| 20260507041250 | 7 | 334 | 0.0 | 0.0 | 0.00 | 0.00 | 0.00 | 99 | 1034.2 |
| 20260507040747 | 7 | 334 | 0.0 | 0.0 | 0.00 | 0.00 | 0.00 | 99 | 1034.0 |
| 20260507040243 | 7 | 334 | 0.0 | 0.0 | 0.00 | 0.00 | 0.00 | 99 | 1033.9 |
| 20260507035739 | 7 | 330 | 0.0 | 0.0 | 0.00 | 1.32 | 1.32 | 99 | 1034.1 |
| 20260507035234 | 7 | 330 | 0.0 | 0.0 | 0.00 | 1.32 | 1.32 | 99 | 1033.9 |
| 20260507034732 | 7 | 334 | 0.0 | 0.0 | 0.00 | 1.32 | 1.32 | 99 | 1033.8 |
| 20260507034229 | 7 | 348 | 0.0 | 0.0 | 0.00 | 1.32 | 1.32 | 99 | 1034.0 |
| 20260507033728 | 7 | 337 | 0.0 | 0.0 | 0.00 | 1.32 | 1.32 | 99 | 1034.3 |
| 20260507033225 | 7 | 340 | 0.0 | 0.0 | 0.13 | 1.32 | 1.32 | 99 | 1034.2 |
| 20260507032722 | 7 | 336 | 0.0 | 0.0 | 0.13 | 1.32 | 1.32 | 99 | 1034.3 |
| 20260507032218 | 7 | 335 | 0.0 | 0.0 | 0.00 | 1.30 | 1.30 | 99 | 1034.5 |
| 20260507031715 | 7 | 339 | 0.0 | 0.0 | 0.00 | 1.30 | 1.30 | 99 | 1034.2 |
| 20260507031211 | 7 | 347 | 0.0 | 0.0 | 0.00 | 1.30 | 1.30 | 99 | 1034.4 |
| 20260507030708 | 7 | 359 | 1.6 | 1.6 | 0.00 | 1.30 | 1.30 | 99 | 1034.5 |
| 20260507030206 | 7 | 346 | 0.0 | 0.0 | 0.00 | 1.30 | 1.30 | 99 | 1034.5 |
| 20260507025703 | 7 | 343 | 0.0 | 0.0 | 0.00 | 1.30 | 1.30 | 99 | 1034.4 |
| 20260507025200 | 7 | 342 | 0.0 | 0.0 | 0.00 | 1.30 | 1.30 | 99 | 1034.6 |
| 20260507024658 | 7 | 345 | 0.0 | 0.0 | 0.00 | 1.30 | 1.30 | 99 | 1034.6 |
| 20260507024155 | 7 | 343 | 0.0 | 0.0 | 0.00 | 1.30 | 1.30 | 99 | 1034.7 |
| 20260507023650 | 7 | 351 | 0.0 | 0.0 | 0.00 | 1.30 | 1.30 | 99 | 1034.7 |
| 20260507023148 | 7 | 336 | 0.0 | 0.0 | 0.00 | 1.30 | 1.30 | 99 | 1034.7 |
| 20260507022645 | 7 | 332 | 0.0 | 0.0 | 0.18 | 1.30 | 1.30 | 99 | 1034.9 |
| 20260507022140 | 7 | 328 | 0.0 | 0.0 | 0.18 | 1.30 | 1.30 | 99 | 1034.8 |
| 20260507021637 | 7 | 336 | 0.0 | 0.0 | 0.00 | 1.27 | 1.27 | 99 | 1034.8 |
| 20260507021132 | 7 | 326 | 0.0 | 0.0 | 0.00 | 1.27 | 1.27 | 99 | 1034.7 |
| 20260507020631 | 8 | 327 | 0.0 | 0.0 | 0.00 | 1.27 | 1.27 | 99 | 1034.6 |
| 20260507020127 | 8 | 328 | 0.0 | 0.0 | 0.00 | 1.27 | 1.27 | 99 | 1034.7 |
| 20260507015625 | 8 | 327 | 0.0 | 0.0 | 0.00 | 1.27 | 1.27 | 99 | 1034.6 |
| 20260507015122 | 8 | 341 | 0.0 | 0.0 | 0.13 | 1.27 | 1.27 | 99 | 1034.6 |
| 20260507014619 | 8 | 343 | 0.0 | 0.0 | 0.13 | 1.27 | 1.27 | 99 | 1034.6 |
| 20260507014115 | 8 | 330 | 0.0 | 0.0 | 0.00 | 1.24 | 1.24 | 99 | 1034.5 |
| 20260507013612 | 8 | 332 | 0.0 | 0.0 | 0.00 | 1.24 | 1.24 | 99 | 1034.6 |
| 20260507013109 | 8 | 335 | 0.0 | 0.0 | 0.18 | 1.24 | 1.24 | 99 | 1034.7 |
| 20260507012606 | 8 | 328 | 0.0 | 0.0 | 0.30 | 1.24 | 1.24 | 99 | 1034.5 |
| 20260507012101 | 8 | 335 | 0.0 | 0.0 | 0.13 | 1.22 | 1.22 | 99 | 1034.3 |
| 20260507011600 | 8 | 329 | 0.0 | 0.0 | 0.30 | 1.22 | 1.22 | 99 | 1034.4 |
| 20260507011055 | 8 | 331 | 0.0 | 0.0 | 0.18 | 1.19 | 1.19 | 99 | 1034.4 |
| 20260507010550 | 8 | 323 | 0.0 | 0.0 | 0.13 | 1.17 | 1.17 | 99 | 1034.1 |
| 20260507010047 | 8 | 0 | 0.0 | 0.0 | 0.30 | 1.17 | 1.17 | 99 | 1034.1 |
| 20260507005544 | 8 | 328 | 0.0 | 0.0 | 0.48 | 1.14 | 1.14 | 99 | 1034.1 |
| 20260507005040 | 8 | 328 | 0.0 | 0.0 | 0.48 | 1.12 | 1.12 | 99 | 1034.1 |
| 20260507004538 | 8 | 331 | 0.0 | 0.0 | 0.30 | 1.07 | 1.07 | 99 | 1033.9 |
| 20260507004035 | 8 | 327 | 0.0 | 0.0 | 0.30 | 1.04 | 1.04 | 99 | 1033.9 |
| 20260507003531 | 8 | 333 | 0.0 | 0.0 | 0.30 | 1.02 | 1.02 | 99 | 1033.9 |
| 20260507003026 | 8 | 358 | 1.6 | 1.6 | 0.30 | 0.99 | 0.99 | 99 | 1033.7 |
| 20260507002522 | 8 | 8 | 1.6 | 1.6 | 0.18 | 0.97 | 0.97 | 99 | 1033.5 |
| 20260507002019 | 8 | 328 | 0.0 | 0.0 | 0.13 | 0.94 | 0.94 | 99 | 1033.5 |
| 20260507001515 | 8 | 345 | 0.0 | 0.0 | 0.13 | 0.94 | 0.94 | 99 | 1033.5 |
| 20260507001013 | 8 | 336 | 0.0 | 0.0 | 0.00 | 0.91 | 0.91 | 99 | 1033.4 |
| 20260507000509 | 8 | 100 | 1.6 | 3.2 | 0.00 | 0.91 | 0.91 | 99 | 1033.2 |
| 20260507000005 | 8 | 340 | 0.0 | 0.0 | 0.00 | 0.91 | 0.91 | 99 | 1033.1 |
| 20260506235502 | 8 | 329 | 0.0 | 0.0 | 0.00 | 0.91 | 0.91 | 99 | 1033.0 |
| 20260506234957 | 8 | 340 | 0.0 | 0.0 | 0.18 | 0.91 | 0.91 | 99 | 1032.9 |
| 20260506234455 | 9 | 331 | 0.0 | 0.0 | 0.18 | 0.91 | 0.91 | 99 | 1032.7 |
| 20260506233952 | 9 | 16 | 0.0 | 1.6 | 0.00 | 0.89 | 0.89 | 99 | 1032.6 |
| 20260506233449 | 9 | 55 | 3.2 | 3.2 | 0.00 | 0.89 | 0.89 | 99 | 1032.5 |
| 20260506232945 | 10 | 331 | 0.0 | 0.0 | 0.00 | 0.89 | 0.89 | 99 | 1032.6 |
| 20260506232442 | 10 | 330 | 0.0 | 0.0 | 0.00 | 0.89 | 0.89 | 99 | 1032.5 |
| 20260506231937 | 10 | 324 | 0.0 | 0.0 | 0.00 | 0.89 | 0.89 | 99 | 1032.4 |
| 20260506231436 | 10 | 323 | 0.0 | 0.0 | 0.00 | 0.89 | 0.89 | 99 | 1032.3 |
| 20260506230932 | 10 | 326 | 0.0 | 0.0 | 0.00 | 0.89 | 0.89 | 99 | 1032.3 |
| 20260506230428 | 10 | 330 | 1.6 | 1.6 | 0.00 | 0.89 | 0.89 | 99 | 1032.1 |
| 20260506225925 | 10 | 357 | 1.6 | 1.6 | 0.13 | 0.89 | 0.89 | 99 | 1032.0 |
| 20260506225423 | 10 | 344 | 1.6 | 1.6 | 0.18 | 0.86 | 0.86 | 99 | 1032.1 |
| 20260506224920 | 10 | 332 | 1.6 | 3.2 | 0.18 | 0.86 | 0.86 | 99 | 1032.1 |
| 20260506224417 | 11 | 328 | 0.0 | 0.0 | 0.00 | 0.84 | 0.84 | 99 | 1032.0 |
| 20260506223913 | 11 | 328 | 0.0 | 0.0 | 0.00 | 0.84 | 0.84 | 99 | 1032.1 |
| 20260506223408 | 11 | 331 | 0.0 | 0.0 | 0.00 | 0.84 | 0.84 | 99 | 1032.0 |
| 20260506222906 | 11 | 328 | 0.0 | 0.0 | 0.00 | 0.84 | 0.84 | 99 | 1031.9 |
| 20260506222402 | 11 | 329 | 0.0 | 0.0 | 0.00 | 0.84 | 0.84 | 99 | 1031.8 |
| 20260506221900 | 11 | 313 | 1.6 | 1.6 | 0.00 | 0.84 | 0.84 | 99 | 1031.8 |
| 20260506221356 | 12 | 320 | 0.0 | 0.0 | 0.00 | 0.84 | 0.84 | 99 | 1031.6 |
| 20260506220854 | 12 | 319 | 0.0 | 0.0 | 0.00 | 0.84 | 0.84 | 99 | 1031.7 |
| 20260506220349 | 11 | 324 | 0.0 | 0.0 | 0.00 | 0.84 | 0.84 | 99 | 1031.7 |
| 20260506215846 | 12 | 340 | 0.0 | 0.0 | 0.00 | 0.84 | 0.84 | 99 | 1031.4 |
| 20260506215342 | 12 | 325 | 0.0 | 0.0 | 0.00 | 0.84 | 0.84 | 99 | 1031.5 |
| 20260506214838 | 12 | 326 | 0.0 | 0.0 | 0.00 | 0.84 | 0.84 | 99 | 1031.4 |
| 20260506214335 | 13 | 327 | 0.0 | 0.0 | 0.00 | 0.84 | 0.84 | 99 | 1031.5 |
| 20260506213833 | 13 | 311 | 0.0 | 0.0 | 0.00 | 0.84 | 0.84 | 99 | 1031.1 |
| 20260506213330 | 13 | 319 | 0.0 | 1.6 | 0.00 | 0.84 | 0.84 | 99 | 1031.4 |
| 20260506212828 | 13 | 335 | 1.6 | 1.6 | 0.00 | 0.84 | 0.84 | 99 | 1031.0 |
| 20260506212323 | 13 | 318 | 0.0 | 1.6 | 0.13 | 0.84 | 0.84 | 99 | 1031.0 |
| 20260506211818 | 15 | 274 | 1.6 | 1.6 | 0.61 | 0.84 | 0.84 | 99 | 1031.2 |
| 20260506211315 | 15 | 295 | 1.6 | 1.6 | 0.66 | 0.81 | 0.81 | 99 | 1031.1 |
| 20260506210813 | 15 | 305 | 0.0 | 1.6 | 0.30 | 0.74 | 0.74 | 99 | 1031.0 |
| 20260506210309 | 15 | 25 | 0.0 | 1.6 | 0.13 | 0.71 | 0.71 | 99 | 1030.8 |
| 20260506205806 | 15 | 338 | 0.0 | 0.0 | 0.30 | 0.71 | 0.71 | 99 | 1030.9 |
| 20260506205305 | 15 | 0 | 1.6 | 1.6 | 0.18 | 0.69 | 0.69 | 99 | 1031.0 |
| 20260506204759 | 15 | 347 | 0.0 | 0.0 | 0.13 | 0.66 | 0.66 | 99 | 1031.0 |
| 20260506204257 | 15 | 175 | 4.8 | 8.0 | 0.13 | 0.66 | 0.66 | 99 | 1030.8 |
| 20260506203754 | 15 | 322 | 0.0 | 0.0 | 0.18 | 0.64 | 0.64 | 99 | 1030.9 |
| 20260506203251 | 15 | 7 | 0.0 | 1.6 | 0.18 | 0.64 | 0.64 | 98 | 1030.9 |
| 20260506202748 | 15 | 328 | 0.0 | 0.0 | 0.00 | 0.61 | 0.61 | 98 | 1030.8 |
| 20260506202245 | 15 | 335 | 0.0 | 0.0 | 0.13 | 0.61 | 0.61 | 98 | 1030.9 |
| 20260506201741 | 15 | 310 | 3.2 | 3.2 | 0.13 | 0.61 | 0.61 | 98 | 1031.0 |
| 20260506201238 | 15 | 2 | 1.6 | 1.6 | 0.00 | 0.58 | 0.58 | 97 | 1030.9 |
| 20260506200735 | 15 | 340 | 0.0 | 0.0 | 0.18 | 0.58 | 0.58 | 97 | 1031.4 |
| 20260506200232 | 15 | 331 | 0.0 | 0.0 | 0.18 | 0.58 | 0.58 | 97 | 1031.2 |
| 20260506195728 | 15 | 321 | 0.0 | 0.0 | 0.00 | 0.56 | 0.56 | 97 | 1031.2 |
| 20260506195225 | 15 | 1 | 1.6 | 1.6 | 0.00 | 0.56 | 0.56 | 97 | 1031.2 |
| 20260506194722 | 15 | 199 | 3.2 | 3.2 | 0.00 | 0.56 | 0.56 | 97 | 1031.2 |
| 20260506194218 | 15 | 359 | 0.0 | 1.6 | 0.00 | 0.56 | 0.56 | 97 | 1031.2 |
| 20260506193716 | 15 | 340 | 0.0 | 0.0 | 0.00 | 0.56 | 0.56 | 97 | 1031.6 |
| 20260506193213 | 15 | 337 | 0.0 | 0.0 | 0.00 | 0.56 | 0.56 | 98 | 1031.6 |
| 20260506192709 | 15 | 335 | 0.0 | 0.0 | 0.00 | 0.56 | 0.56 | 98 | 1031.4 |
| 20260506192206 | 15 | 21 | 0.0 | 1.6 | 0.00 | 0.56 | 0.56 | 98 | 1031.5 |
| 20260506191657 | 15 | 343 | 0.0 | 0.0 | 0.00 | 0.56 | 0.56 | 98 | 1031.5 |
| 20260506191153 | 15 | 329 | 0.0 | 0.0 | 0.00 | 0.56 | 0.56 | 99 | 1031.7 |
| 20260506190650 | 15 | 324 | 0.0 | 0.0 | 0.00 | 0.56 | 0.56 | 99 | 1031.7 |
| 20260506190147 | 15 | 307 | 0.0 | 1.6 | 0.00 | 0.56 | 0.56 | 99 | 1031.8 |
| 20260506185644 | 15 | 328 | 0.0 | 0.0 | 0.13 | 0.56 | 0.56 | 99 | 1031.7 |
| 20260506185140 | 15 | 327 | 0.0 | 0.0 | 0.13 | 0.56 | 0.56 | 99 | 1031.9 |
| 20260506184638 | 15 | 341 | 0.0 | 0.0 | 0.00 | 0.53 | 0.53 | 99 | 1032.0 |
| 20260506184135 | 15 | 289 | 1.6 | 1.6 | 0.00 | 0.53 | 0.53 | 99 | 1031.9 |
| 20260506183632 | 15 | 325 | 0.0 | 1.6 | 0.00 | 0.53 | 0.53 | 99 | 1031.9 |
| 20260506183127 | 15 | 334 | 0.0 | 0.0 | 0.18 | 0.53 | 0.53 | 99 | 1032.0 |
| 20260506182625 | 15 | 338 | 0.0 | 0.0 | 0.13 | 0.51 | 0.51 | 99 | 1032.0 |
| 20260506182122 | 15 | 335 | 0.0 | 0.0 | 0.30 | 0.51 | 0.51 | 99 | 1032.2 |
| 20260506181620 | 15 | 28 | 0.0 | 1.6 | 0.30 | 0.48 | 0.48 | 99 | 1032.2 |
| 20260506181117 | 15 | 290 | 3.2 | 8.0 | 0.30 | 0.46 | 0.46 | 99 | 1032.7 |
| 20260506180614 | 15 | 131 | 4.8 | 8.0 | 0.36 | 0.43 | 0.43 | 99 | 1032.3 |
| 20260506180110 | 15 | 116 | 1.6 | 3.2 | 0.30 | 0.41 | 0.41 | 99 | 1032.2 |
| 20260506175606 | 15 | 324 | 0.0 | 0.0 | 0.30 | 0.38 | 0.38 | 99 | 1032.3 |
| 20260506175102 | 15 | 324 | 0.0 | 1.6 | 0.30 | 0.36 | 0.36 | 99 | 1032.2 |
| 20260506174602 | 15 | 325 | 0.0 | 0.0 | 0.30 | 0.33 | 0.33 | 99 | 1032.5 |
| 20260506174057 | 15 | 11 | 0.0 | 1.6 | 0.30 | 0.30 | 0.30 | 99 | 1032.3 |
| 20260506173555 | 15 | 334 | 0.0 | 0.0 | 0.30 | 0.28 | 0.28 | 98 | 1032.6 |
| 20260506173052 | 15 | 330 | 0.0 | 0.0 | 0.30 | 0.25 | 0.25 | 98 | 1032.7 |
| 20260506172549 | 15 | 331 | 0.0 | 0.0 | 0.30 | 0.23 | 0.23 | 98 | 1032.7 |
| 20260506172045 | 15 | 327 | 0.0 | 0.0 | 0.18 | 0.20 | 0.20 | 98 | 1032.7 |
| 20260506171543 | 15 | 335 | 0.0 | 0.0 | 0.13 | 0.18 | 0.18 | 98 | 1032.9 |
| 20260506171041 | 15 | 334 | 0.0 | 0.0 | 0.13 | 0.18 | 0.18 | 98 | 1032.8 |
| 20260506170538 | 15 | 338 | 0.0 | 0.0 | 0.18 | 0.15 | 0.15 | 98 | 1032.6 |
| 20260506170036 | 15 | 330 | 0.0 | 0.0 | 0.18 | 0.15 | 0.15 | 98 | 1032.8 |
| 20260506165534 | 15 | 332 | 0.0 | 0.0 | 0.13 | 0.13 | 0.13 | 98 | 1032.8 |
| 20260506165030 | 15 | 330 | 0.0 | 0.0 | 0.13 | 0.13 | 0.13 | 98 | 1032.8 |
| 20260506164527 | 15 | 346 | 0.0 | 0.0 | 0.00 | 0.10 | 0.10 | 98 | 1032.8 |
| 20260506164024 | 15 | 340 | 0.0 | 0.0 | 0.00 | 0.10 | 0.10 | 98 | 1033.1 |
| 20260506163520 | 15 | 344 | 0.0 | 0.0 | 0.18 | 0.10 | 0.10 | 97 | 1033.1 |
| 20260506163016 | 15 | 319 | 0.0 | 0.0 | 0.18 | 0.10 | 0.10 | 97 | 1033.4 |
| 20260506162512 | 15 | 319 | 0.0 | 0.0 | 0.00 | 0.08 | 0.08 | 97 | 1033.3 |
| 20260506162009 | 15 | 330 | 0.0 | 0.0 | 0.18 | 0.08 | 0.08 | 97 | 1033.3 |
| 20260506161507 | 15 | 352 | 0.0 | 0.0 | 0.18 | 0.08 | 0.08 | 96 | 1033.1 |
| 20260506161004 | 15 | 319 | 0.0 | 0.0 | 0.00 | 0.05 | 0.05 | 96 | 1033.3 |
| 20260506160502 | 15 | 337 | 0.0 | 0.0 | 0.00 | 0.05 | 0.05 | 96 | 1033.2 |
| 20260506155958 | 15 | 347 | 0.0 | 0.0 | 0.00 | 0.05 | 0.05 | 95 | 1033.2 |
| 20260506155456 | 15 | 353 | 0.0 | 0.0 | 0.00 | 0.05 | 0.05 | 96 | 1033.6 |
| 20260506153628 | 15 | 342 | 0.0 | 0.0 | 0.13 | 0.05 | 0.05 | 93 | 1034.2 |
| 20260506153125 | 15 | 328 | 0.0 | 0.0 | 0.00 | 0.03 | 0.03 | 93 | 1034.2 |
| 20260506152622 | 15 | 325 | 0.0 | 0.0 | 0.00 | 0.03 | 0.03 | 92 | 1034.4 |
| 20260506152120 | 15 | 340 | 0.0 | 0.0 | 0.00 | 0.03 | 0.03 | 92 | 1034.4 |
| 20260506151619 | 15 | 347 | 0.0 | 0.0 | 0.00 | 0.03 | 0.03 | 91 | 1034.3 |
| 20260506151115 | 15 | 333 | 0.0 | 0.0 | 0.00 | 0.03 | 0.03 | 90 | 1034.5 |
| 20260506150612 | 15 | 297 | 0.0 | 0.0 | 0.18 | 0.03 | 0.03 | 90 | 1034.6 |
| 20260506150109 | 15 | 333 | 0.0 | 0.0 | 0.18 | 0.03 | 0.03 | 90 | 1034.5 |
| 20260506145606 | 15 | 334 | 0.0 | 0.0 | 0.18 | 0.03 | 0.03 | 90 | 1034.5 |
| 20260506145103 | 15 | 329 | 0.0 | 0.0 | 0.00 | 0.00 | 0.00 | 90 | 1034.5 |
| 20260506144559 | 15 | 325 | 0.0 | 0.0 | 0.00 | 0.00 | 0.00 | 90 | 1034.5 |
| 20260506144056 | 15 | 327 | 0.0 | 0.0 | 0.00 | 0.00 | 0.00 | 88 | 1034.5 |
| 20260506143554 | 15 | 333 | 0.0 | 0.0 | 0.00 | 0.00 | 0.00 | 87 | 1034.4 |
| 20260506143052 | 15 | 322 | 0.0 | 0.0 | 0.00 | 0.00 | 0.00 | 86 | 1034.5 |
| 20260506142550 | 15 | 325 | 0.0 | 1.6 | 0.00 | 0.00 | 0.00 | 85 | 1034.7 |
| 20260506142048 | 15 | 338 | 0.0 | 0.0 | 0.00 | 0.00 | 0.00 | 85 | 1034.3 |
| 20260506141545 | 15 | 332 | 0.0 | 0.0 | 0.00 | 0.00 | 0.00 | 85 | 1034.5 |
| 20260506141044 | 15 | 325 | 0.0 | 0.0 | 0.00 | 0.00 | 0.00 | 86 | 1034.6 |
| 20260506140541 | 15 | 249 | 3.2 | 3.2 | 0.00 | 0.00 | 0.00 | 85 | 1034.6 |
| 20260506140038 | 15 | 143 | 1.6 | 3.2 | 0.00 | 0.00 | 0.00 | 86 | 1034.6 |
| 20260506135535 | 15 | 315 | 0.0 | 1.6 | 0.00 | 0.00 | 0.00 | 86 | 1034.3 |
| 20260506135031 | 15 | 141 | 3.2 | 3.2 | 0.00 | 0.00 | 0.00 | 86 | 1034.3 |
| 20260506134527 | 15 | 141 | 4.8 | 4.8 | 0.00 | 0.00 | 0.00 | 85 | 1034.5 |
| 20260506134024 | 15 | 305 | 0.0 | 1.6 | 0.00 | 0.00 | 0.00 | 86 | 1034.5 |
| 20260506133521 | 15 | 336 | 3.2 | 3.2 | 0.00 | 0.00 | 0.00 | 86 | 1034.5 |
| 20260506133018 | 15 | 323 | 0.0 | 0.0 | 0.00 | 0.00 | 0.00 | 87 | 1034.4 |
| 20260506132515 | 15 | 357 | 1.6 | 1.6 | 0.00 | 0.00 | 0.00 | 86 | 1034.7 |
| 20260506132012 | 15 | 356 | 1.6 | 1.6 | 0.00 | 0.00 | 0.00 | 86 | 1034.7 |
| 20260506131509 | 15 | 339 | 0.0 | 0.0 | 0.00 | 0.00 | 0.00 | 87 | 1035.0 |
| 20260506131006 | 15 | 174 | 1.6 | 3.2 | 0.00 | 0.00 | 0.00 | 87 | 1035.3 |
| 20260506130502 | 15 | 7 | 1.6 | 1.6 | 0.00 | 0.00 | 0.00 | 87 | 1035.3 |
| 20260506130000 | 15 | 154 | 3.2 | 3.2 | 0.00 | 0.00 | 0.00 | 87 | 1035.5 |
| 20260506125458 | 14 | 325 | 0.0 | 0.0 | 0.00 | 0.00 | 0.00 | 88 | 1035.2 |
| 20260506124955 | 14 | 329 | 0.0 | 0.0 | 0.00 | 0.00 | 0.00 | 88 | 1035.2 |
| 20260506124453 | 14 | 313 | 1.6 | 1.6 | 0.00 | 0.00 | 0.00 | 87 | 1034.7 |
| 20260506123951 | 14 | 1 | 0.0 | 1.6 | 0.00 | 0.00 | 0.00 | 87 | 1034.5 |
| 20260506123449 | 14 | 328 | 0.0 | 0.0 | 0.00 | 0.00 | 0.00 | 88 | 1035.1 |
| 20260506122946 | 14 | 322 | 0.0 | 0.0 | 0.00 | 0.00 | 0.00 | 88 | 1035.2 |
| 20260506122443 | 14 | 328 | 0.0 | 0.0 | 0.00 | 0.00 | 0.00 | 88 | 1035.0 |
| 20260506121941 | 14 | 335 | 0.0 | 0.0 | 0.00 | 0.00 | 0.00 | 89 | 1034.8 |
| 20260506121438 | 14 | 348 | 0.0 | 0.0 | 0.00 | 0.00 | 0.00 | 90 | 1034.9 |
| 20260506120934 | 13 | 331 | 0.0 | 0.0 | 0.00 | 0.00 | 0.00 | 89 | 1035.1 |
| 20260506120432 | 13 | 328 | 0.0 | 0.0 | 0.00 | 0.00 | 0.00 | 90 | 1035.2 |
| 20260506115929 | 13 | 296 | 0.0 | 0.0 | 0.00 | 0.00 | 0.00 | 91 | 1035.1 |
| 20260506115427 | 13 | 323 | 0.0 | 0.0 | 0.00 | 0.00 | 0.00 | 93 | 1035.1 |
| 20260506114925 | 13 | 331 | 0.0 | 0.0 | 0.00 | 0.00 | 0.00 | 93 | 1035.0 |
| 20260506114423 | 13 | 334 | 0.0 | 0.0 | 0.00 | 0.00 | 0.00 | 93 | 1035.0 |
| 20260506113921 | 13 | 340 | 0.0 | 0.0 | 0.00 | 0.00 | 0.00 | 93 | 1035.0 |
| 20260506113419 | 13 | 343 | 0.0 | 0.0 | 0.00 | 0.00 | 0.00 | 94 | 1035.1 |
| 20260506112915 | 13 | 343 | 0.0 | 0.0 | 0.00 | 0.00 | 0.00 | 94 | 1035.1 |
| 20260506112413 | 13 | 337 | 0.0 | 0.0 | 0.00 | 0.00 | 0.00 | 94 | 1035.2 |
| 20260506111910 | 13 | 329 | 0.0 | 0.0 | 0.00 | 0.00 | 0.00 | 94 | 1035.2 |
| 20260506111408 | 13 | 325 | 0.0 | 0.0 | 0.00 | 0.00 | 0.00 | 94 | 1035.3 |
| 20260506110905 | 13 | 2 | 0.0 | 0.0 | 0.00 | 0.00 | 0.00 | 94 | 1035.2 |
| 20260506110402 | 12 | 326 | 0.0 | 0.0 | 0.00 | 0.00 | 0.00 | 95 | 1035.2 |